Location: Huntsville
(41.2590°N, 111.7678°W)
Time: 06:36:02
(UTC+00:00)

Vanguard 3 - Pass Details

Date: 13 June 2021
Orbit: 508 x 3261 km, 33.4° (Epoch: 29 July)

Event Time Altitude Azimuth Distance (km) Brightness Sun altitude
Rises 20:32:08 0° 268° (W) 3,872 10.8 67.5°
Reaches altitude 10° 20:34:32 10° 261° (W) 3,194 10.6 67.2°
Maximum altitude 20:42:13 41° 194° (SSW) 2,376 10.7 66.1°
Drops below altitude 10° 20:55:05 10° 131° (SE) 5,291 11.4 64.3°
Sets 21:00:22 0° 126° (SE) 6,673 11.7 63.5°
